{"data":{"norad_id":55474,"epoch":"2026-05-24T14:50:05.611200Z","epoch_age_seconds":107446,"freshness":"FRESH","line1":"1 55474U 23015AB  26144.61812050 -.00002377  00000+0 -76878-4 0  9996","line2":"2 55474  43.0037 271.2607 0001484 268.4810  91.5872 15.27575741182204","mean_motion":15.27575741,"eccentricity":0.0001484,"inclination_deg":43.0037,"raan_deg":271.2607,"arg_perigee_deg":268.481,"mean_anomaly_deg":91.5872,"bstar":-7.6878e-5,"rev_number":18220,"period_min":94.26701153668,"perigee_km":482.04364713825,"apogee_km":484.08005095665,"semimajor_km":6861.1988490474,"source":"CELESTRAK","updated_at":"2026-05-25T13:38:17.807792Z"}}